Location: Alladorf
(49.9620°N, 11.3790°E)
Time: 21:06:13
(UTC+00:00)

Cosmos 1898 Rocket - Pass Details

Date: 29 November 2020
Orbit: 754 x 783 km, 74.0° (Epoch: 24 January)

Event Time Altitude Azimuth Distance (km) Brightness Sun altitude
Rises 04:46:09 0° 203° (SSW) 3,248 6.6 -19.0°
Reaches altitude 10° 04:48:31 10° 203° (SSW) 2,328 5.9 -18.6°
Maximum altitude 04:53:49 87° 292° (WNW) 791 3.5 -17.7°
Drops below altitude 10° 04:59:12 10° 23° (NNE) 2,351 6.1 -16.9°
Sets 05:01:36 0° 24° (NNE) 3,284 6.9 -16.5°
